Regional Weather Roundup
Issued by NWS

Home | Current Version | Previous Version | Graphics & Text | Print | Product List | Glossary On
Versions: 1 2 3 4 5 6 7 8 9 10 11 12 13 14 15 16 17 18 19 20 21 22 23 24 25 26 27 28 29 30 31 32 33 34 35 36 37 38 39 40 41 42 43 44 45 46 47 48 49 50
000
ASUS43 KTOP 310159
RWRKS

WEATHER ROUNDUP FOR KANSAS
NATIONAL WEATHER SERVICE GOODLAND KS
900 PM CDT WED JUL 30 2014

NOTE:  "FAIR" INDICATES FEW OR NO CLOUDS BELOW 12,000 FEET WITH NO
SIGNIFICANT WEATHER AND/OR OBSTRUCTIONS TO VISIBILITY.

KSZ001>006-013>018-027>032-041>047-310300-
NORTHWEST KANSAS

CITY           SKY/WX    TMP DP  RH WIND       PRES   REMARKS
GOODLAND       CLOUDY    68  59  73 W6        30.24R
HAYS           CLEAR     70  54  56 S5        30.14S
HILL CITY      PTCLDY    70  53  54 NE5       30.15S
RUSSELL        CLEAR     69  55  60 E5        30.12S
$$

KSZ061>065-074>080-084>089-310300-
SOUTHWEST KANSAS

CITY           SKY/WX    TMP DP  RH WIND       PRES   REMARKS
DODGE CITY     PTCLDY    63  56  78 NE5       30.18S
ELKHART          N/A     64  59  84 NE9         N/A
GARDEN CITY    CLEAR     66  58  75 CALM      30.20S
GREAT BEND     PTCLDY    66  61  82 S5        30.14R
LIBERAL        PTCLDY    64  57  77 NE7       30.22R
$$

KSZ066>073-081>083-090>101-310300-
SOUTHEAST KANSAS

CITY           SKY/WX    TMP DP  RH WIND       PRES   REMARKS
CHANUTE        CLOUDY    68  65  90 CALM      30.09S
COFFEYVILLE    LGT RAIN  68  66  93 E6        30.06S
HUTCHINSON     PTCLDY    65  61  87 CALM      30.12R
NEWTON         MOCLDY    66  59  77 NE5       30.14S
PARSONS        CLOUDY    68  65  90 N5        30.09R
WICHITA INTL   MOCLDY    68  64  87 NE8       30.10R
WICHITA JABRA  MOCLDY    65  65 100 NE3       30.10S
WINFIELD       CLOUDY    68  66  93 NE7       30.10R
$$

KSZ007>012-019>026-033>040-048>060-102>105-310300-
NORTHEAST KANSAS

CITY           SKY/WX    TMP DP  RH WIND       PRES   REMARKS
CONCORDIA      PTCLDY    71  56  58 NE3       30.11S
EMPORIA        PTCLDY    67  62  84 CALM      30.09F
LAWRENCE       PTCLDY    67  60  78 NW3       30.08S
MANHATTAN      CLEAR     69  58  67 CALM      30.09S
OLATHE IND     MOCLDY    69  61  75 SW5       30.09S
OLATHE EXE     MOCLDY    70  61  73 SW3       30.08S
SALINA         CLEAR     70  57  63 S6        30.11S
TOPEKA BILLARD PTCLDY    71  58  63 CALM      30.08S
TOPEKA FORBES  PTCLDY    70  58  65 CALM      30.09S
$$


USA.gov is the U.S. government's official web portal to all federal, state and local government web resources and services.